Location: New Canada
(47.1017°N, 68.5042°W)
Time: 07:53:13
(UTC+00:00)

FENGYUN 1C DEB - Visible Passes

Search period start: 06 December 2023 00:00
Search period end: 16 December 2023 00:00
Orbit: 781 x 857 km, 99.1° (Epoch: 27 November)

Date Brightness Start Highest point End Pass type
(mag) Time Alt. Az. Time Alt. Az. Time Alt. Az.
06 Dec ? 07:40:01 10° E 07:40:57 13° E 07:40:57 13° E visible
06 Dec ? 09:17:17 10° SSE 09:22:17 83° SSW 09:22:17 83° SSW visible
06 Dec ? 11:01:23 10° WSW 11:03:16 12° W 11:03:36 12° W visible
06 Dec ? 21:31:28 10° NE 21:36:03 28° E 21:40:40 10° SSE visible
06 Dec ? 23:11:10 10° N 23:16:13 46° WNW 23:21:22 10° SW visible
07 Dec ? 08:56:24 10° SSE 09:00:55 60° ESE 09:00:55 60° ESE visible
07 Dec ? 10:38:27 10° SW 10:41:59 19° W 10:42:16 18° W visible
07 Dec ? 21:11:06 10° NE 21:14:51 19° E 21:18:39 10° SE visible
07 Dec ? 22:50:01 10° N 22:55:20 68° WNW 23:00:43 10° SSW visible
08 Dec ? 00:32:19 10° NNW 00:34:26 12° NW 00:36:33 10° WNW visible
08 Dec ? 08:35:46 10° SE 08:39:34 38° E 08:39:34 38° E visible
08 Dec ? 10:16:24 10° SSW 10:20:47 28° W 10:20:55 28° W visible
08 Dec ? 22:29:00 10° NNE 22:34:23 83° ESE 22:39:50 10° SSW visible
09 Dec ? 00:10:19 10° NNW 00:13:46 18° WNW 00:17:15 10° W visible
09 Dec ? 08:15:21 10° ESE 08:18:14 25° E 08:18:14 25° E visible
09 Dec ? 09:54:47 10° S 09:59:34 42° W 09:59:34 42° W visible
09 Dec ? 22:08:04 10° NNE 22:13:22 56° E 22:18:43 10° S visible
09 Dec ? 23:48:46 10° N 23:53:03 25° WNW 23:57:22 10° WSW visible
10 Dec ? 07:55:14 10° ESE 07:56:53 16° E 07:56:53 16° E visible
10 Dec ? 09:33:28 10° S 09:38:13 62° SW 09:38:13 62° SW visible
10 Dec ? 21:47:17 10° NNE 21:52:18 38° E 21:57:20 10° SSE visible
10 Dec ? 23:27:25 10° N 23:32:16 35° WNW 23:37:09 10° SW visible
11 Dec ? 07:35:32 10° E 07:35:32 10° E 07:35:32 10° E visible
11 Dec ? 09:12:24 10° SSE 09:16:53 68° SSE 09:16:53 68° SSE visible
11 Dec ? 10:55:46 10° WSW 10:58:12 14° W 10:58:12 14° W visible
11 Dec ? 21:26:42 10° NE 21:31:09 26° E 21:35:38 10° SSE visible
11 Dec ? 23:06:13 10° N 23:11:24 51° WNW 23:16:40 10° SW visible
12 Dec ? 08:51:34 10° SSE 08:55:32 48° ESE 08:55:32 48° ESE visible
12 Dec ? 10:33:12 10° SW 10:36:52 21° W 10:36:52 21° W visible
12 Dec ? 22:45:06 10° NNE 22:50:30 75° WNW 22:55:58 10° SSW visible
13 Dec ? 00:27:01 10° NNW 00:29:40 14° NW 00:32:19 10° W visible
13 Dec ? 08:30:59 10° SE 08:34:12 31° ESE 08:34:12 31° ESE visible
13 Dec ? 10:11:17 10° SSW 10:15:32 31° WSW 10:15:32 31° WSW visible
13 Dec ? 22:24:06 10° NNE 22:29:31 75° ESE 22:35:00 10° S visible
14 Dec ? 00:05:13 10° NNW 00:08:58 20° WNW 00:12:47 10° WSW visible
14 Dec ? 08:10:38 10° ESE 08:12:52 21° E 08:12:52 21° E visible
14 Dec ? 09:49:44 10° S 09:54:12 46° WSW 09:54:12 46° WSW visible
14 Dec ? 22:03:13 10° NNE 22:08:29 51° E 22:13:49 10° S visible
14 Dec ? 23:43:43 10° N 23:48:14 28° WNW 23:52:47 10° WSW visible
15 Dec ? 07:50:36 10° E 07:51:32 13° E 07:51:32 13° E visible
15 Dec ? 09:28:29 10° S 09:32:52 61° SSW 09:32:52 61° SSW visible
15 Dec ? 21:42:27 10° NNE 21:47:23 34° E 21:52:20 10° SSE visible
15 Dec ? 23:22:25 10° N 23:27:25 39° WNW 23:32:29 10° SW visible
